TIANMU-1 12

Last updated on Sun Oct 26 2025 00:02:30 GMT+0000 (Coordinated Universal Time)

1 58646U 23205B 25298.51721983 .00008287 00000+0 34805-3 0 9990 2 58646 97.3640 318.8248 0009667 96.0224 264.2115 15.23655646101731
UTC large
Height (km)
Speed (km/s)
/
Latitude / Longitude
Inclination (degrees)
Orbital Period (minutes)
Azimuth
Elevation
Range (km)
Doppler Factor

Next 0 passes for location: London (51.5072 / 0.1276)

Sorry there are no passes over London.